Regional Weather Roundup
Issued by NWS Cleveland, OH

Home | Current Version | Previous Version | Graphics & Text | Print | Product List | Glossary On
Versions: 1 2 3 4 5 6 7 8 9 10 11 12 13 14 15 16 17 18 19 20 21 22 23 24 25 26 27 28 29 30 31 32 33 34 35 36 37 38 39 40 41 42 43 44 45 46 47 48 49 50
000
ASUS41 KCLE 102010
RWRCLE
OHIO REGIONAL WEATHER ROUNDUP
NATIONAL WEATHER SERVICE CLEVELAND, OH
300 PM EST SAT DEC 10 2016

NOTE: "FAIR" INDICATES FEW OR NO CLOUDS BELOW 12,000 FEET WITH NO
SIGNIFICANT WEATHER AND/OR OBSTRUCTIONS TO VISIBILITY.

OHZ001>008-015>018-024>027-034-035-043-044-102100-
   NORTHWEST OHIO

CITY           SKY/WX    TMP DP  RH WIND       PRES   REMARKS
DEFIANCE       PTSUNNY   28  13  53 W10G16    30.45S WCI  19
FINDLAY        CLOUDY    27  15  61 W13       30.44F WCI  16
TOLEDO EXPRESS PTSUNNY   28  15  58 SW16      30.43S WCI  16
TOLEDO EXEC    CLOUDY    28  15  58 SW14      30.44S WCI  17
LIMA           CLOUDY    25  18  74 W9        30.44F WCI  15
$$

OHZ009>014-019>023-028>033-038-089-102100-
   NORTHEAST OHIO

CITY           SKY/WX    TMP DP  RH WIND       PRES   REMARKS
CLE-HOPKINS    CLOUDY    28  15  58 SW14      30.46S WCI  17
CLE-LAKEFRONT  CLOUDY    27  16  63 SW16      30.44S WCI  15
CUY CO. ARPT   LGT SNOW  27  18  69 W14       30.43S WCI  15
LORAIN-ELYRIA  CLOUDY    25  14  63 SW13      30.44F WCI  14
ASHTABULA      CLOUDY    25  18  74 W14G23    30.40S WCI  13
AKRON-CANTON   PTSUNNY   26  12  55 W10       30.42S WCI  16
WOOSTER        CLOUDY    24  14  65 W12       30.44S WCI  13
MANSFIELD      CLOUDY    23  14  68 W10       30.43R WCI  12
YOUNGSTOWN     PTSUNNY   26  14  60 SW16G23   30.40R WCI  14
$$

OHZ042-051>053-060>062-070>072-077>081-102100-
  SOUTHWEST OHIO

CITY           SKY/WX    TMP DP  RH WIND       PRES   REMARKS
CINC-COVINGTON PTSUNNY   29  16  58 SW7       30.47F WCI  22
CINC-LUNKEN    CLOUDY    31  18  58 W7        30.52F WCI  24
HAMILTON       PTSUNNY   30  17  58 SW7       30.50F WCI  23
DAYTON         CLOUDY    27  15  61 SW12      30.46F WCI  17
WRIGHT-PAT AFB CLOUDY    28  16  58 SW12      30.47F WCI  18
DAYTON GENERAL CLOUDY    27  16  63 SW8       30.46F WCI  19
WILMINGTON     PTSUNNY   27  15  61 SW10      30.47R WCI  17
$$

OHZ036-037-039>041-045>050-054>059-063>069-073>076-082>088-102100-
  CENTRAL AND SOUTHEAST OHIO

CITY           SKY/WX    TMP DP  RH WIND       PRES   REMARKS
COLUMBUS       CLOUDY    26  16  65 SW10      30.48S WCI  16
OSU AIRPORT    CLOUDY    26  15  63 SW12      30.48R WCI  16
BOLTON FIELD   CLOUDY    27  16  63 SW10      30.48F WCI  17
RICKENBACK AFB   N/A     27  15  59 W10       30.48S WCI  18
NEWARK         CLOUDY    26  17  68 W8        30.47S WCI  18
MARION         CLOUDY    25  14  63 W9        30.45F WCI  15
LANCASTER      CLOUDY    27  17  66 W6        30.48S WCI  20
ZANESVILLE     CLOUDY    27  15  61 SW9       30.48R WCI  18
NEW PHILLY     NOT AVBL
$$



USA.gov is the U.S. government's official web portal to all federal, state and local government web resources and services.